Time,TemperatureF,DewpointF,PressureIn,WindDirection,WindDirectionDegrees,WindSpeedMPH,WindSpeedGustMPH,Humidity,HourlyPrecipIn,Conditions,Clouds,dailyrainin,SoftwareType,DateUTC
2013-09-03 00:12:00,64.0,58.0,29.86,NNE,19,2.0,4.0,80,0.00,,,0.00,,2013-09-03 05:12:00,
2013-09-03 00:23:00,64.0,58.0,29.86,NNE,13,0.0,4.0,81,0.00,,,0.00,,2013-09-03 05:23:00,
2013-09-03 00:43:00,64.0,58.0,29.85,NE,34,0.0,4.0,81,0.00,,,0.00,,2013-09-03 05:43:00,
2013-09-03 00:52:00,63.0,57.0,29.85,NE,34,0.0,2.0,81,0.00,,,0.00,,2013-09-03 05:52:00,
2013-09-03 01:12:00,63.0,57.0,29.85,NNW,335,0.0,3.0,82,0.00,,,0.00,,2013-09-03 06:12:00,
2013-09-03 01:22:00,62.0,57.0,29.86,NNW,335,0.0,1.0,83,0.00,,,0.00,,2013-09-03 06:22:00,
2013-09-03 01:43:00,62.0,57.0,29.86,NNW,335,0.0,1.0,84,0.00,,,0.00,,2013-09-03 06:43:00,
2013-09-03 01:52:00,62.0,57.0,29.86,NNW,335,0.0,2.0,83,0.00,,,0.00,,2013-09-03 06:52:00,
2013-09-03 02:12:00,62.0,56.0,29.86,NNW,335,0.0,3.0,82,0.00,,,0.00,,2013-09-03 07:12:00,
2013-09-03 02:22:00,62.0,56.0,29.86,NNW,339,0.0,3.0,80,0.00,,,0.00,,2013-09-03 07:22:00,
2013-09-03 02:42:00,63.0,56.0,29.86,WNW,301,0.0,2.0,79,0.00,,,0.00,,2013-09-03 07:42:00,
2013-09-03 02:53:00,63.0,56.0,29.86,NNW,346,0.0,3.0,77,0.00,,,0.00,,2013-09-03 07:53:00,
2013-09-03 03:11:00,63.0,55.0,29.86,NNE,17,0.0,2.0,75,0.00,,,0.00,,2013-09-03 08:11:00,
2013-09-03 03:22:00,63.0,55.0,29.86,NNE,17,0.0,2.0,74,0.00,,,0.00,,2013-09-03 08:22:00,
2013-09-03 03:52:00,64.0,55.0,29.86,NNE,17,1.0,3.0,73,0.00,,,0.00,,2013-09-03 08:52:00,
2013-09-03 04:11:00,64.0,55.0,29.86,NNE,17,0.0,2.0,72,0.00,,,0.00,,2013-09-03 09:11:00,
2013-09-03 04:21:00,64.0,55.0,29.86,NNE,17,0.0,2.0,73,0.00,,,0.00,,2013-09-03 09:21:00,
2013-09-03 04:43:00,63.0,54.0,29.86,North,5,0.0,3.0,73,0.00,,,0.00,,2013-09-03 09:43:00,
2013-09-03 04:53:00,63.0,54.0,29.86,North,5,0.0,1.0,73,0.00,,,0.00,,2013-09-03 09:53:00,
2013-09-03 05:13:00,64.0,54.0,29.85,North,5,0.0,3.0,71,0.00,,,0.00,,2013-09-03 10:13:00,
2013-09-03 05:23:00,64.0,54.0,29.85,NNE,16,1.0,4.0,71,0.00,,,0.00,,2013-09-03 10:23:00,
2013-09-03 05:42:00,65.0,55.0,29.85,North,355,1.0,4.0,70,0.00,,,0.00,,2013-09-03 10:42:00,
2013-09-03 05:53:00,65.0,55.0,29.85,NNW,346,0.0,4.0,70,0.00,,,0.00,,2013-09-03 10:53:00,
2013-09-03 06:12:00,65.0,55.0,29.85,NNW,346,1.0,3.0,70,0.00,,,0.00,,2013-09-03 11:12:00,
2013-09-03 06:23:00,65.0,55.0,29.85,NNE,12,1.0,4.0,69,0.00,,,0.00,,2013-09-03 11:23:00,
2013-09-03 06:42:00,65.0,55.0,29.86,North,5,0.0,3.0,69,0.00,,,0.00,,2013-09-03 11:42:00,
2013-09-03 06:52:00,65.0,55.0,29.86,North,5,0.0,2.0,70,0.00,,,0.00,,2013-09-03 11:52:00,
2013-09-03 07:12:00,65.0,55.0,29.86,North,5,0.0,2.0,70,0.00,,,0.00,,2013-09-03 12:12:00,
2013-09-03 07:22:00,65.0,55.0,29.85,North,5,0.0,4.0,69,0.00,,,0.00,,2013-09-03 12:22:00,
2013-09-03 07:42:00,65.0,55.0,29.86,NNW,344,0.0,3.0,69,0.00,,,0.00,,2013-09-03 12:42:00,
2013-09-03 07:52:00,65.0,55.0,29.86,NNW,344,0.0,2.0,70,0.00,,,0.00,,2013-09-03 12:52:00,
2013-09-03 08:11:00,65.0,55.0,29.86,NNW,332,1.0,3.0,70,0.00,,,0.00,,2013-09-03 13:11:00,
2013-09-03 08:22:00,66.0,56.0,29.86,NNW,343,0.0,5.0,69,0.00,,,0.00,,2013-09-03 13:22:00,
2013-09-03 08:42:00,66.0,55.0,29.86,NNW,347,1.0,3.0,68,0.00,,,0.00,,2013-09-03 13:42:00,
2013-09-03 08:52:00,67.0,56.0,29.86,North,355,1.0,4.0,67,0.00,,,0.00,,2013-09-03 13:52:00,
2013-09-03 09:11:00,68.0,56.0,29.86,North,355,1.0,4.0,65,0.00,,,0.00,,2013-09-03 14:11:00,
2013-09-03 09:21:00,69.0,56.0,29.85,North,11,1.0,5.0,64,0.00,,,0.00,,2013-09-03 14:21:00,
2013-09-03 09:42:00,70.0,57.0,29.86,NNW,343,1.0,5.0,64,0.00,,,0.00,,2013-09-03 14:42:00,
2013-09-03 09:52:00,71.0,59.0,29.86,NNW,347,0.0,4.0,66,0.00,,,0.00,,2013-09-03 14:52:00,
2013-09-03 10:22:00,74.0,58.0,29.86,South,169,0.0,3.0,58,0.00,,,0.00,,2013-09-03 15:22:00,
2013-09-03 10:43:00,74.0,57.0,29.86,SE,140,3.0,7.0,56,0.00,,,0.00,,2013-09-03 15:43:00,
2013-09-03 10:54:00,76.0,57.0,29.86,South,183,1.0,7.0,52,0.00,,,0.00,,2013-09-03 15:54:00,
2013-09-03 11:14:00,77.0,56.0,29.85,South,180,2.0,8.0,48,0.00,,,0.00,,2013-09-03 16:14:00,
2013-09-03 11:24:00,78.0,57.0,29.85,ENE,65,1.0,5.0,48,0.00,,,0.00,,2013-09-03 16:24:00,
2013-09-03 11:43:00,80.0,57.0,29.85,NNE,24,1.0,4.0,46,0.00,,,0.00,,2013-09-03 16:43:00,
2013-09-03 11:54:00,81.0,58.0,29.85,South,178,2.0,7.0,46,0.00,,,0.00,,2013-09-03 16:54:00,
2013-09-03 12:13:00,82.0,58.0,29.84,WNW,298,2.0,8.0,44,0.00,,,0.00,,2013-09-03 17:13:00,
2013-09-03 12:23:00,82.0,57.0,29.84,East,86,2.0,10.0,43,0.00,,,0.00,,2013-09-03 17:23:00,
2013-09-03 12:43:00,83.0,55.0,29.84,East,80,2.0,10.0,39,0.00,,,0.00,,2013-09-03 17:43:00,
2013-09-03 12:52:00,85.0,57.0,29.83,WSW,247,2.0,9.0,39,0.00,,,0.00,,2013-09-03 17:52:00,
2013-09-03 13:02:00,85.0,57.0,29.83,WSW,247,2.0,9.0,39,0.00,,,0.00,,2013-09-03 18:02:00,
2013-09-03 13:12:00,85.0,57.0,29.83,WSW,247,2.0,9.0,39,0.00,,,0.00,,2013-09-03 18:12:00,
2013-09-03 13:22:00,85.0,58.0,29.82,South,190,3.0,7.0,40,0.00,,,0.00,,2013-09-03 18:22:00,
2013-09-03 13:43:00,85.0,57.0,29.81,South,173,2.0,7.0,39,0.00,,,0.00,,2013-09-03 18:43:00,
2013-09-03 13:52:00,87.0,57.0,29.81,NE,46,1.0,7.0,36,0.00,,,0.00,,2013-09-03 18:52:00,
2013-09-03 14:11:00,89.0,56.0,29.80,ENE,76,2.0,7.0,33,0.00,,,0.00,,2013-09-03 19:11:00,
2013-09-03 14:22:00,87.0,57.0,29.80,SW,234,2.0,10.0,36,0.00,,,0.00,,2013-09-03 19:22:00,
2013-09-03 14:42:00,88.0,57.0,29.79,SW,223,2.0,10.0,35,0.00,,,0.00,,2013-09-03 19:42:00,
2013-09-03 14:52:00,88.0,55.0,29.78,WNW,288,2.0,12.0,33,0.00,,,0.00,,2013-09-03 19:52:00,
2013-09-03 15:11:00,89.0,57.0,29.79,WSW,244,3.0,11.0,34,0.00,,,0.00,,2013-09-03 20:11:00,
2013-09-03 15:22:00,91.0,58.0,29.78,ESE,111,3.0,9.0,33,0.00,,,0.00,,2013-09-03 20:22:00,
2013-09-03 15:42:00,91.0,57.0,29.77,NW,318,2.0,7.0,32,0.00,,,0.00,,2013-09-03 20:42:00,
2013-09-03 15:52:00,92.0,59.0,29.77,East,81,1.0,8.0,33,0.00,,,0.00,,2013-09-03 20:52:00,
2013-09-03 16:12:00,92.0,59.0,29.76,NW,312,2.0,9.0,33,0.00,,,0.00,,2013-09-03 21:12:00,
2013-09-03 16:22:00,93.0,58.0,29.75,WSW,238,2.0,11.0,31,0.00,,,0.00,,2013-09-03 21:22:00,
2013-09-03 16:44:00,93.0,59.0,29.75,NW,319,1.0,6.0,32,0.00,,,0.00,,2013-09-03 21:44:00,
2013-09-03 16:54:00,92.0,58.0,29.75,ESE,121,2.0,13.0,32,0.00,,,0.00,,2013-09-03 21:54:00,
2013-09-03 17:13:00,93.0,59.0,29.74,North,360,1.0,12.0,32,0.00,,,0.00,,2013-09-03 22:13:00,
2013-09-03 17:23:00,93.0,57.0,29.74,ENE,64,2.0,9.0,30,0.00,,,0.00,,2013-09-03 22:23:00,
2013-09-03 17:52:00,93.0,58.0,29.73,SSW,202,2.0,7.0,31,0.00,,,0.00,,2013-09-03 22:52:00,
2013-09-03 18:12:00,93.0,58.0,29.73,NNE,19,1.0,10.0,31,0.00,,,0.00,,2013-09-03 23:12:00,
2013-09-03 18:22:00,93.0,57.0,29.73,ENE,70,3.0,14.0,30,0.00,,,0.00,,2013-09-03 23:22:00,
2013-09-03 18:42:00,93.0,61.0,29.73,NNE,30,0.0,7.0,35,0.00,,,0.00,,2013-09-03 23:42:00,
2013-09-03 18:53:00,93.0,59.0,29.73,NNW,343,1.0,5.0,32,0.00,,,0.00,,2013-09-03 23:53:00,
2013-09-03 19:12:00,92.0,59.0,29.73,North,355,1.0,6.0,33,0.00,,,0.00,,2013-09-04 00:12:00,
2013-09-03 19:22:00,92.0,60.0,29.73,WNW,301,2.0,6.0,34,0.00,,,0.00,,2013-09-04 00:22:00,
2013-09-03 19:42:00,91.0,61.0,29.73,NNW,340,1.0,5.0,37,0.00,,,0.00,,2013-09-04 00:42:00,
2013-09-03 19:52:00,90.0,59.0,29.72,WNW,296,0.0,3.0,36,0.00,,,0.00,,2013-09-04 00:52:00,
2013-09-03 20:11:00,88.0,58.0,29.73,NW,321,0.0,3.0,37,0.00,,,0.00,,2013-09-04 01:11:00,
2013-09-03 20:22:00,87.0,58.0,29.73,NNW,327,0.0,5.0,38,0.00,,,0.00,,2013-09-04 01:22:00,
2013-09-03 20:42:00,85.0,57.0,29.74,NNW,348,1.0,4.0,39,0.00,,,0.00,,2013-09-04 01:42:00,
2013-09-03 20:52:00,84.0,58.0,29.74,North,350,1.0,3.0,42,0.00,,,0.00,,2013-09-04 01:52:00,
2013-09-03 21:11:00,82.0,59.0,29.74,NNE,28,2.0,4.0,45,0.00,,,0.00,,2013-09-04 02:11:00,
2013-09-03 21:22:00,80.0,58.0,29.75,NNE,32,2.0,7.0,47,0.00,,,0.00,,2013-09-04 02:22:00,
2013-09-03 21:43:00,79.0,58.0,29.76,NNE,21,4.0,8.0,49,0.00,,,0.00,,2013-09-04 02:43:00,
2013-09-03 21:52:00,76.0,60.0,29.77,NNE,24,3.0,6.0,57,0.00,,,0.00,,2013-09-04 02:52:00,
2013-09-03 22:11:00,75.0,60.0,29.77,NNW,331,1.0,6.0,59,0.00,,,0.00,,2013-09-04 03:11:00,
2013-09-03 22:22:00,74.0,59.0,29.77,North,355,1.0,5.0,60,0.00,,,0.00,,2013-09-04 03:22:00,
2013-09-03 22:44:00,74.0,60.0,29.77,North,355,0.0,3.0,61,0.00,,,0.00,,2013-09-04 03:44:00,
2013-09-03 22:54:00,73.0,59.0,29.78,NNE,13,2.0,4.0,61,0.00,,,0.00,,2013-09-04 03:54:00,
2013-09-03 23:14:00,73.0,59.0,29.78,NNE,21,0.0,5.0,61,0.00,,,0.00,,2013-09-04 04:14:00,
2013-09-03 23:44:00,74.0,58.0,29.79,West,273,1.0,5.0,57,0.00,,,0.00,,2013-09-04 04:44:00,
2013-09-03 23:54:00,74.0,57.0,29.79,WNW,298,1.0,5.0,56,0.00,,,0.00,,2013-09-04 04:54:00,